Simultaneous Nadir Overpasses (SNOs) Predictions

Prediction of SNOs between GOES-17 and METOP-C Satellite Orbit:

Table of predicted SNOs for the next 14.0 days since TLE Epoch: 1/21/2023
Index Date Time (GOES-17) GOES-17 Lat,Lon METOP-C Lat,Lon Distance(km) Time Diff (sec)
1 01/21/2023 17:57:56 0.01,-126.13 0.22,-127.14 115.32 80
2 01/22/2023 17:39:54 0.02,-124.97 -0.66,-122.10 328.51 80
3 01/24/2023 05:56:09 -0.02,-123.20 -0.80,-126.60 388.99 80
4 01/25/2023 05:38:06 -0.02,-122.04 0.08,-121.56 54.91 80
5 01/26/2023 05:17:24 -0.03,-120.89 0.96,-116.52 499.05 80
6 01/27/2023 17:33:29 0.03,-119.15 0.44,-120.99 210.58 80
7 01/28/2023 17:15:27 0.03,-117.99 -0.45,-115.95 233.19 80
8 01/30/2023 05:31:42 -0.02,-116.21 -0.99,-120.46 484.75 80
9 01/31/2023 05:11:00 -0.02,-115.06 -0.10,-115.42 40.96 80
10 02/01/2023 04:52:56 -0.03,-113.90 0.74,-110.37 402.58 80
11 02/02/2023 17:09:01 0.02,-112.15 0.63,-114.84 307.57 80
12 02/03/2023 16:50:58 0.03,-110.99 -0.21,-109.79 135.98 80
